Tracking 31027 objects as of 19-Jul-2025
HD Live streaming from Space Station
objects crossing your sky now

GLOBALSTAR M055

Track GLOBALSTAR M055 now!
10-day predictions
GLOBALSTAR M055 is classified as:


NORAD ID: 25910
Int'l Code: 1999-049D
Perigee: 1,553.1 km
Apogee: 1,564.7 km
Inclination: 52.0 °
Period: 117.1 minutes
Semi major axis: 7929 km
RCS: 2.0613 m2 (large)
Launch date: September 22, 1999
Source: Globalstar (GLOB)
Launch site: TYURATAM MISSILE AND SPACE COMPLEX (TTMTR)
Your satellite tracking list
COSMOS 1656
Track 1 satellite(s)




NASA's NSSDC Master Catalog

Two Line Element Set (TLE):
1 25910U 99049D   25199.63882781 -.00000074  00000-0  17584-3 0  9997
2 25910  52.0014 269.3954 0007337 194.8269 165.2369 12.29430001172372
Source of the keplerian elements: AFSPC